Back to catalog

STARLINK-35392

AliveCommunicationsVLEO
NORAD 65823·PAYLOAD·🇺🇸 United States

Launched Sep 29, 2025 from Vandenberg Space Force Base

Loading…

Next Passes (next 24 hours)

TLE

FreshSource: CelesTrak SupGP

Epoch: Sep 14, 2026, 14:26 UTC

1 65823C 25221A   26257.60187500  .00021527  00000+0  63621-3 0  2579
2 65823  53.1580 289.1557 0001113  77.0720 185.3924 15.34370103    14

Track STARLINK-35392 in real time with AllMySat

Download on the App Store